sat.trackr.live / text

‹ back to catalog

TJS-22

NORAD 66990 · 2025-290A

PAYLOAD ACTIVE UNKNOWN

§ Identity

Operator
Country
PRC
Launch date
2025-12-09
Launch site
XICLF
Launch vehicle
Mass (kg)
RCS (m²)

Purposes: comms

External: N2YO · Heavens-Above · Gunter

§ Orbital elements

Epoch: 2026-05-24T22:29:01.502880Z

Period
1,436.06 min
Inclination
1.5854°
Eccentricity
0.0001866
Mean motion
1.00274661 rev/d
Perigee alt
35,777.9 km
Apogee alt
35,793.7 km
Semi-major
42,163.9 km
B*
0.0000e+0
RAAN
286.2769°
Arg perigee
348.9516°
Mean anomaly
11.1077°
Rev number
179

§ Raw data

TJS-221 66990U 25290A   26144.93682295 -.00000012  00000+0  00000+0 0  99912 66990   1.5854 286.2769 0001866 348.9516  11.1077  1.00274661  1793

JSON: /api/v1/satellites/66990 · /tle

For live sub-satellite position, see the globe view (requires WebGL).

§ Visibility from observer

Set your observer location to see the next 7 days of passes ≥ 10°. The values pass through the URL so the page stays shareable.

No JS? Fill the form by hand. The geolocation button needs JavaScript.